Warroad, MN

12:19 AM CDT on June 29, 2017 (GMT -0500)
Warroad International-Carlson

Weather History for KRRT - June, 2013

Change the Weather History Date:

Sunday, June 30, 2013

  Actual Average Record
Temperature  
Mean Temperature 66 °F -  
Max Temperature 80 °F 75 °F 92 °F (1966)
Min Temperature 53 °F 54 °F 40 °F (1960)
Cooling Degree Days 2    
Growing Degree Days 16 (Base 50)    
Moisture  
Dew Point 56 °F    
Average Humidity 65    
Maximum Humidity 88    
Minimum Humidity 37    
Precipitation  
Precipitation 0.00 in - - ()
Sea Level Pressure  
Sea Level Pressure 30.14 in    
Wind  
Wind Speed 4 mph (NE)    
Max Wind Speed 8 mph    
Max Gust Speed -    
Visibility 10 miles    
Events      
Averages and records for this station are not official NWS values.
T = Trace of Precipitation, MM = Missing Value Source: NWS Daily Summary

Daily Weather History Graph

Daily Weather History Graph

Search for Another Location

Airport or City:

Trip Planner

Search our weather history database for the weather conditions in past years. The results will help you decide how hot, cold, wet, or windy it might be!

Date:

Astronomy

Jun. 30, 2013 Rise Set
Actual Time 5:21 AM CDT 9:28 PM CDT
Civil Twilight 4:38 AM CDT 10:11 PM CDT
Nautical Twilight 3:38 AM CDT 11:11 PM CDT
Astronomical Twilight 1:57 AM CDT 12:52 AM CDT
Moon 12:46 AM CDT (6/30) 2:21 PM CDT (6/30)
Length of Visible Light 17h 32m
Length of Day
16h 07m
Last Quarter, 45% of the Moon is Illuminated
Jun 30
Last Quarter
Jul 8
New
Jul 15
First Quarter
Jul 22
Full
Jul 29
Last Quarter

Hourly Weather History & Observations

Time (CDT) Temp. Heat Index Dew Point Humidity Pressure Visibility Wind Dir Wind Speed Gust Speed Precip Events Conditions
12:13 AM 64.4 °F - 55.4 °F 73% 30.06 in 10.0 mi WNW 6.9 mph - N/A   Clear
12:34 AM 64.4 °F - 55.4 °F 73% 30.06 in 10.0 mi WNW 5.8 mph - N/A   Clear
12:54 AM 64.4 °F - 55.4 °F 73% 30.07 in 10.0 mi WNW 8.1 mph - N/A   Clear
1:14 AM 64.4 °F - 55.4 °F 73% 30.06 in 10.0 mi WNW 6.9 mph - N/A   Clear
1:34 AM 62.6 °F - 55.4 °F 77% 30.07 in 10.0 mi NW 6.9 mph - N/A   Clear
1:54 AM 62.6 °F - 55.4 °F 77% 30.07 in 10.0 mi NW 6.9 mph - N/A   Clear
2:14 AM 62.6 °F - 55.4 °F 77% 30.07 in 10.0 mi WNW 6.9 mph - N/A   Clear
2:34 AM 60.8 °F - 55.4 °F 82% 30.07 in 10.0 mi NW 8.1 mph - N/A   Clear
2:54 AM 60.8 °F - 55.4 °F 82% 30.08 in 10.0 mi NW 5.8 mph - N/A   Clear
3:14 AM 60.8 °F - 55.4 °F 82% 30.09 in 10.0 mi WNW 8.1 mph - N/A   Clear
3:34 AM 59.0 °F - 53.6 °F 82% 30.09 in 10.0 mi WNW 3.5 mph - N/A   Clear
3:54 AM 57.2 °F - 53.6 °F 88% 30.09 in 10.0 mi WNW 3.5 mph - N/A   Clear
4:14 AM 57.2 °F - 53.6 °F 88% 30.10 in 10.0 mi Calm Calm - N/A   Clear
4:34 AM 55.4 °F - 51.8 °F 88% 30.10 in 10.0 mi Calm Calm - N/A   Clear
4:54 AM 53.6 °F - 50.0 °F 88% 30.11 in 10.0 mi Calm Calm - N/A   Clear
5:14 AM 53.6 °F - 50.0 °F 88% 30.12 in 10.0 mi Calm Calm - N/A   Clear
5:34 AM 53.6 °F - 48.2 °F 82% 30.12 in 10.0 mi Calm Calm - N/A   Clear
5:54 AM 53.6 °F - 48.2 °F 82% 30.12 in 10.0 mi Calm Calm - N/A   Clear
6:14 AM 53.6 °F - 48.2 °F 82% 30.12 in 10.0 mi Calm Calm - N/A   Clear
6:34 AM 55.4 °F - 51.8 °F 88% 30.13 in 10.0 mi Calm Calm - N/A   Clear
6:54 AM 57.2 °F - 53.6 °F 88% 30.13 in 10.0 mi Calm Calm - N/A   Clear
7:13 AM 59.0 °F - 55.4 °F 88% 30.13 in 10.0 mi WNW 3.5 mph - N/A   Clear
7:34 AM 60.8 °F - 55.4 °F 82% 30.14 in 10.0 mi Calm Calm - N/A   Clear
7:54 AM 62.6 °F - 55.4 °F 77% 30.14 in 10.0 mi NW 4.6 mph - N/A   Clear
8:14 AM 64.4 °F - 57.2 °F 77% 30.14 in 10.0 mi Calm Calm - N/A   Clear
8:34 AM 66.2 °F - 57.2 °F 73% 30.15 in 10.0 mi Calm Calm - N/A   Clear
8:54 AM 69.8 °F - 59.0 °F 68% 30.15 in 10.0 mi Calm Calm - N/A   Clear
9:14 AM 71.6 °F - 59.0 °F 64% 30.15 in 10.0 mi Calm Calm - N/A   Clear
9:34 AM 73.4 °F - 59.0 °F 61% 30.15 in 10.0 mi Calm Calm - N/A   Clear
9:54 AM 73.4 °F - 57.2 °F 57% 30.15 in 10.0 mi North 3.5 mph - N/A   Clear
10:14 AM 73.4 °F - 59.0 °F 61% 30.15 in 10.0 mi NE 5.8 mph - N/A   Clear
10:34 AM 73.4 °F - 60.8 °F 65% 30.15 in 10.0 mi ENE 5.8 mph - N/A   Clear
10:54 AM 73.4 °F - 59.0 °F 61% 30.15 in 10.0 mi ENE 4.6 mph - N/A   Clear
11:14 AM 75.2 °F - 59.0 °F 57% 30.15 in 10.0 mi East 3.5 mph - N/A   Clear
11:34 AM 75.2 °F - 60.8 °F 61% 30.15 in 10.0 mi East 3.5 mph - N/A   Clear
11:54 AM 75.2 °F - 60.8 °F 61% 30.15 in 10.0 mi East 4.6 mph - N/A   Clear
12:14 PM 75.2 °F - 59.0 °F 57% 30.16 in 10.0 mi East 4.6 mph - N/A   Clear
12:34 PM 77.0 °F - 60.8 °F 57% 30.15 in 10.0 mi East 5.8 mph - N/A   Clear
12:54 PM 77.0 °F - 62.6 °F 61% 30.16 in 10.0 mi East 8.1 mph - N/A   Clear
1:14 PM 75.2 °F - 62.6 °F 65% 30.16 in 10.0 mi East 8.1 mph - N/A   Clear
1:34 PM 75.2 °F - 60.8 °F 61% 30.16 in 10.0 mi East 8.1 mph - N/A   Clear
1:54 PM 77.0 °F - 60.8 °F 57% 30.16 in 10.0 mi East 6.9 mph - N/A   Clear
2:14 PM 77.0 °F - 57.2 °F 50% 30.16 in 10.0 mi ENE 8.1 mph - N/A   Clear
2:34 PM 78.8 °F - 57.2 °F 47% 30.16 in 10.0 mi ENE 6.9 mph - N/A   Clear
2:54 PM 78.8 °F - 59.0 °F 51% 30.16 in 10.0 mi East 6.9 mph - N/A   Clear
3:14 PM 78.8 °F - 57.2 °F 47% 30.16 in 10.0 mi East 6.9 mph - N/A   Clear
3:34 PM 78.8 °F - 57.2 °F 47% 30.16 in 10.0 mi East 6.9 mph - N/A   Clear
3:54 PM 78.8 °F - 55.4 °F 44% 30.16 in 10.0 mi East 5.8 mph - N/A   Clear
4:14 PM 78.8 °F - 53.6 °F 42% 30.16 in 10.0 mi East 6.9 mph - N/A   Clear
4:34 PM 78.8 °F - 55.4 °F 44% 30.15 in 10.0 mi East 6.9 mph - N/A   Clear
4:54 PM 78.8 °F - 55.4 °F 44% 30.16 in 10.0 mi East 5.8 mph - N/A   Clear
5:14 PM 78.8 °F - 55.4 °F 44% 30.15 in 10.0 mi East 5.8 mph - N/A   Clear
5:34 PM 78.8 °F - 55.4 °F 44% 30.15 in 10.0 mi East 4.6 mph - N/A   Clear
5:54 PM 80.6 °F 80.3 °F 53.6 °F 39% 30.15 in 10.0 mi East 6.9 mph - N/A   Clear
6:14 PM 80.6 °F 80.5 °F 55.4 °F 42% 30.15 in 10.0 mi ESE 4.6 mph - N/A   Clear
6:34 PM 80.6 °F - 51.8 °F 37% 30.15 in 10.0 mi ESE 3.5 mph - N/A   Clear
6:54 PM 80.6 °F 80.3 °F 53.6 °F 39% 30.15 in 10.0 mi East 3.5 mph - N/A   Clear
7:14 PM 78.8 °F - 55.4 °F 44% 30.15 in 10.0 mi Calm Calm - N/A   Clear
7:34 PM 78.8 °F - 55.4 °F 44% 30.15 in 10.0 mi Calm Calm - N/A   Clear
7:54 PM 78.8 °F - 55.4 °F 44% 30.15 in 10.0 mi Calm Calm - N/A   Clear
8:14 PM 75.2 °F - 60.8 °F 61% 30.15 in 10.0 mi Calm Calm - N/A   Clear
8:34 PM 71.6 °F - 62.6 °F 73% 30.15 in 10.0 mi Calm Calm - N/A   Scattered Clouds
8:54 PM 71.6 °F - 57.2 °F 60% 30.15 in 10.0 mi Calm Calm - N/A   Scattered Clouds
9:14 PM 69.8 °F - 57.2 °F 64% 30.16 in 10.0 mi Calm Calm - N/A   Scattered Clouds
9:34 PM 68.0 °F - 60.8 °F 78% 30.16 in 7.0 mi Calm Calm - N/A   Scattered Clouds
9:54 PM 69.8 °F - 59.0 °F 68% 30.17 in 10.0 mi Calm Calm - N/A   Mostly Cloudy
10:14 PM 68.0 °F - 57.2 °F 68% 30.18 in 10.0 mi WNW 5.8 mph - N/A   Scattered Clouds
10:34 PM 68.0 °F - 57.2 °F 68% 30.18 in 10.0 mi WNW 3.5 mph - N/A   Clear
10:54 PM 69.8 °F - 57.2 °F 64% 30.18 in 10.0 mi WNW 3.5 mph - N/A   Clear
11:13 PM 69.8 °F - 57.2 °F 64% 30.18 in 10.0 mi WNW 4.6 mph - N/A   Clear
11:34 PM 69.8 °F - 57.2 °F 64% 30.18 in 10.0 mi WNW 4.6 mph - N/A   Clear
11:54 PM 69.8 °F - 57.2 °F 64% 30.19 in 10.0 mi WNW 4.6 mph - N/A   Clear